| time (UTC) | temp F | wind direction | speed MPH | gust MPH | rain 1hr in | rain 24hr in | rain mn in | humidity % | barometer mb |
| 20260508211523 | 75 | 86 | 2.0 | 6.0 | 0.00 | 0.00 | 0.00 | 82 | 1008.6 |
| 20260508210002 | 74 | 79 | 2.0 | 5.0 | 0.00 | 0.00 | 0.00 | 82 | 1009.0 |
| 20260508204522 | 74 | 76 | 2.0 | 6.0 | 0.00 | 0.00 | 0.00 | 81 | 1009.2 |
| 20260508203009 | 74 | 104 | 2.0 | 8.0 | 0.00 | 0.00 | 0.00 | 81 | 1009.1 |
| 20260508201528 | 73 | 60 | 2.0 | 8.0 | 0.00 | 0.00 | 0.00 | 82 | 1009.4 |
| 20260508200014 | 73 | 87 | 2.0 | 7.0 | 0.00 | 0.00 | 0.00 | 82 | 1009.6 |
| 20260508194503 | 73 | 101 | 2.0 | 6.0 | 0.00 | 0.00 | 0.00 | 83 | 1009.7 |
| 20260508193021 | 71 | 116 | 2.0 | 6.0 | 0.00 | 0.00 | 0.00 | 83 | 1009.8 |
| 20260508191509 | 71 | 146 | 1.0 | 7.0 | 0.00 | 0.00 | 0.00 | 83 | 1010.0 |
| 20260508190024 | 71 | 141 | 1.0 | 7.0 | 0.00 | 0.00 | 0.00 | 83 | 1010.1 |
| 20260508184512 | 71 | 83 | 2.0 | 5.0 | 0.00 | 0.00 | 0.00 | 83 | 1010.2 |
| 20260508183028 | 70 | 99 | 2.0 | 5.0 | 0.00 | 0.00 | 0.00 | 82 | 1010.5 |
| 20260508181515 | 70 | 74 | 0.0 | 4.0 | 0.00 | 0.00 | 0.00 | 81 | 1010.8 |
| 20260508180003 | 70 | 163 | 0.0 | 3.0 | 0.00 | 0.00 | 0.00 | 81 | 1011.3 |
| 20260508174527 | 70 | 97 | 0.0 | 2.0 | 0.00 | 0.00 | 0.00 | 81 | 1011.2 |
| 20260508173008 | 69 | 144 | 1.0 | 4.0 | 0.00 | 0.00 | 0.00 | 81 | 1011.3 |
| 20260508171529 | 69 | 69 | 1.0 | 3.0 | 0.00 | 0.00 | 0.00 | 82 | 1011.3 |
| 20260508170014 | 68 | 85 | 0.0 | 5.0 | 0.00 | 0.00 | 0.00 | 82 | 1011.5 |
| 20260508164503 | 68 | 101 | 2.0 | 5.0 | 0.00 | 0.00 | 0.00 | 82 | 1011.5 |
| 20260508163019 | 68 | 80 | 2.0 | 5.0 | 0.00 | 0.00 | 0.00 | 83 | 1011.8 |
| 20260508161507 | 67 | 101 | 1.0 | 6.0 | 0.00 | 0.00 | 0.00 | 83 | 1011.8 |
| 20260508160021 | 66 | 15 | 1.0 | 8.0 | 0.00 | 0.00 | 0.00 | 84 | 1012.1 |
| 20260508154509 | 65 | 66 | 2.0 | 6.0 | 0.00 | 0.00 | 0.00 | 85 | 1012.2 |
| 20260508153029 | 65 | 310 | 3.0 | 5.0 | 0.00 | 0.00 | 0.00 | 85 | 1012.6 |
| 20260508151528 | 64 | 45 | 2.0 | 6.0 | 0.00 | 0.00 | 0.00 | 85 | 1012.7 |
| 20260508150007 | 64 | 15 | 1.0 | 6.0 | 0.00 | 0.00 | 0.00 | 87 | 1012.7 |
| 20260508144523 | 63 | 38 | 2.0 | 8.0 | 0.00 | 0.00 | 0.00 | 87 | 1012.9 |
| 20260508143012 | 63 | 356 | 4.0 | 7.0 | 0.00 | 0.00 | 0.00 | 87 | 1013.0 |
| 20260508141505 | 63 | 21 | 4.0 | 8.0 | 0.00 | 0.00 | 0.00 | 87 | 1012.8 |
| 20260508140033 | 63 | 19 | 2.0 | 6.0 | 0.00 | 0.00 | 0.00 | 87 | 1012.9 |
| 20260508134510 | 63 | 13 | 2.0 | 7.0 | 0.00 | 0.00 | 0.00 | 87 | 1012.6 |
| 20260508133029 | 63 | 27 | 2.0 | 7.0 | 0.00 | 0.00 | 0.00 | 87 | 1012.6 |
| 20260508131517 | 63 | 56 | 1.0 | 4.0 | 0.00 | 0.00 | 0.00 | 86 | 1012.8 |
| 20260508130006 | 63 | 356 | 0.0 | 3.0 | 0.00 | 0.00 | 0.00 | 87 | 1012.9 |
| 20260508124532 | 62 | 58 | 0.0 | 3.0 | 0.00 | 0.00 | 0.00 | 86 | 1012.7 |
| 20260508123025 | 62 | 10 | 1.0 | 6.0 | 0.00 | 0.00 | 0.00 | 86 | 1012.7 |
| 20260508121501 | 62 | 2 | 0.0 | 4.0 | 0.00 | 0.00 | 0.00 | 86 | 1012.9 |
| 20260508120022 | 62 | 27 | 0.0 | 5.0 | 0.00 | 0.00 | 0.00 | 86 | 1012.8 |
| 20260508114510 | 62 | 58 | 3.0 | 7.0 | 0.00 | 0.00 | 0.00 | 86 | 1012.8 |
| 20260508113028 | 61 | 2 | 1.0 | 4.0 | 0.00 | 0.00 | 0.00 | 87 | 1012.8 |
| 20260508111519 | 62 | 79 | 1.0 | 5.0 | 0.00 | 0.00 | 0.00 | 86 | 1012.7 |
| 20260508110004 | 62 | 15 | 2.0 | 6.0 | 0.00 | 0.00 | 0.00 | 84 | 1013.4 |
| 20260508104525 | 63 | 3 | 0.0 | 7.0 | 0.00 | 0.00 | 0.00 | 82 | 1013.5 |
| 20260508103010 | 63 | 21 | 3.0 | 6.0 | 0.00 | 0.00 | 0.00 | 81 | 1012.9 |
| 20260508101538 | 63 | 32 | 0.0 | 4.0 | 0.00 | 0.00 | 0.00 | 81 | 1012.7 |
| 20260508100020 | 63 | 51 | 1.0 | 9.0 | 0.00 | 0.00 | 0.00 | 81 | 1012.3 |
| 20260508094519 | 63 | 86 | 3.0 | 5.0 | 0.00 | 0.00 | 0.00 | 80 | 1012.1 |
| 20260508093027 | 63 | 78 | 0.0 | 5.0 | 0.00 | 0.00 | 0.00 | 79 | 1012.8 |
| 20260508091531 | 63 | 50 | 1.0 | 5.0 | 0.00 | 0.00 | 0.00 | 78 | 1013.1 |
| 20260508090003 | 63 | 55 | 1.0 | 5.0 | 0.00 | 0.00 | 0.00 | 78 | 1013.3 |
| 20260508084521 | 63 | 7 | 1.0 | 5.0 | 0.00 | 0.00 | 0.00 | 77 | 1013.3 |
| 20260508083011 | 63 | 360 | 3.0 | 7.0 | 0.00 | 0.00 | 0.00 | 77 | 1012.7 |
| 20260508081538 | 63 | 37 | 1.0 | 6.0 | 0.00 | 0.00 | 0.00 | 77 | 1012.6 |
| 20260508080020 | 63 | 360 | 2.0 | 6.0 | 0.00 | 0.00 | 0.00 | 77 | 1013.3 |
| 20260508074510 | 63 | 25 | 2.0 | 5.0 | 0.00 | 0.00 | 0.00 | 77 | 1013.3 |
| 20260508073028 | 63 | 8 | 1.0 | 4.0 | 0.00 | 0.00 | 0.00 | 77 | 1013.9 |
| 20260508071522 | 63 | 12 | 1.0 | 5.0 | 0.00 | 0.00 | 0.00 | 76 | 1013.6 |
| 20260508070048 | 63 | 333 | 2.0 | 6.0 | 0.00 | 0.00 | 0.00 | 76 | 1013.8 |
| 20260508064529 | 63 | 23 | 1.0 | 6.0 | 0.00 | 0.00 | 0.00 | 76 | 1013.7 |
| 20260508063008 | 63 | 90 | 3.0 | 9.0 | 0.00 | 0.00 | 0.00 | 76 | 1013.2 |
| 20260508061526 | 65 | 86 | 2.0 | 8.0 | 0.00 | 0.00 | 0.00 | 74 | 1012.7 |
| 20260508060020 | 64 | 80 | 1.0 | 3.0 | 0.00 | 0.00 | 0.00 | 77 | 1013.6 |
| 20260508054538 | 64 | 312 | 0.0 | 1.0 | 0.00 | 0.00 | 0.00 | 76 | 1014.8 |
| 20260508053019 | 64 | 306 | 0.0 | 3.0 | 0.00 | 0.00 | 0.00 | 76 | 1014.8 |
| 20260508051506 | 64 | 20 | 1.0 | 6.0 | 0.00 | 0.00 | 0.00 | 76 | 1014.7 |
| 20260508050029 | 63 | 25 | 3.0 | 10.0 | 0.00 | 0.00 | 0.00 | 76 | 1015.4 |
| 20260508044514 | 63 | 11 | 2.0 | 6.0 | 0.00 | 0.00 | 0.00 | 76 | 1013.2 |
| 20260508043002 | 63 | 76 | 1.0 | 8.0 | 0.00 | 0.00 | 0.00 | 76 | 1012.7 |
| 20260508041522 | 64 | 94 | 1.0 | 7.0 | 0.00 | 0.00 | 0.00 | 75 | 1013.3 |
| 20260508040024 | 64 | 70 | 1.0 | 8.0 | 0.00 | 0.00 | 0.00 | 73 | 1013.7 |
| 20260508034537 | 65 | 19 | 2.0 | 8.0 | 0.00 | 0.00 | 0.00 | 71 | 1013.9 |
| 20260508033020 | 65 | 2 | 4.0 | 10.0 | 0.00 | 0.00 | 0.00 | 72 | 1014.3 |
| 20260508031508 | 65 | 11 | 3.0 | 8.0 | 0.00 | 0.00 | 0.00 | 72 | 1014.5 |
| 20260508030030 | 65 | 341 | 2.0 | 5.0 | 0.00 | 0.00 | 0.00 | 72 | 1014.6 |
| 20260508024526 | 65 | 356 | 2.0 | 5.0 | 0.00 | 0.00 | 0.00 | 73 | 1014.3 |
| 20260508023007 | 65 | 42 | 0.0 | 0.0 | 0.00 | 0.00 | 0.00 | 73 | 1014.0 |
| 20260508021526 | 65 | 73 | 1.0 | 4.0 | 0.00 | 0.00 | 0.00 | 73 | 1013.4 |
| 20260508020016 | 65 | 6 | 0.0 | 10.0 | 0.00 | 0.00 | 0.00 | 72 | 1013.5 |
| 20260508014505 | 65 | 71 | 3.0 | 7.0 | 0.00 | 0.00 | 0.00 | 71 | 1013.0 |
| 20260508013024 | 65 | 88 | 2.0 | 10.0 | 0.00 | 0.00 | 0.00 | 71 | 1013.0 |
| 20260508011515 | 66 | 109 | 3.0 | 16.0 | 0.00 | 0.00 | 0.00 | 69 | 1012.3 |
| 20260508010002 | 66 | 140 | 4.0 | 12.0 | 0.00 | 0.00 | 0.00 | 69 | 1011.7 |
| 20260508004523 | 67 | 77 | 3.0 | 12.0 | 0.00 | 0.00 | 0.00 | 68 | 1011.7 |
| 20260508003010 | 67 | 79 | 4.0 | 11.0 | 0.00 | 0.00 | 0.00 | 69 | 1012.2 |
| 20260508001543 | 68 | 127 | 5.0 | 10.0 | 0.00 | 0.00 | 0.00 | 67 | 1012.9 |
| 20260508000018 | 68 | 351 | 4.0 | 9.0 | 0.00 | 0.00 | 0.00 | 67 | 1013.4 |
| 20260507234506 | 69 | 75 | 3.0 | 9.0 | 0.00 | 0.00 | 0.00 | 65 | 1014.1 |
| 20260507233032 | 69 | 10 | 4.0 | 11.0 | 0.00 | 0.00 | 0.00 | 63 | 1014.1 |
| 20260507231516 | 69 | 9 | 3.0 | 12.0 | 0.00 | 0.00 | 0.00 | 63 | 1014.1 |
| 20260507230013 | 69 | 14 | 4.0 | 12.0 | 0.00 | 0.00 | 0.00 | 64 | 1013.9 |
| 20260507224530 | 68 | 57 | 5.0 | 10.0 | 0.00 | 0.00 | 0.00 | 65 | 1014.3 |
| 20260507223012 | 69 | 84 | 4.0 | 12.0 | 0.00 | 0.00 | 0.00 | 66 | 1014.3 |
| 20260507221603 | 69 | 67 | 5.0 | 11.0 | 0.00 | 0.00 | 0.00 | 67 | 1014.1 |
| 20260507220021 | 68 | 15 | 4.0 | 9.0 | 0.00 | 0.00 | 0.00 | 66 | 1014.6 |
| 20260507214509 | 68 | 10 | 4.0 | 8.0 | 0.00 | 0.00 | 0.00 | 67 | 1014.6 |
| 20260507213104 | 68 | 33 | 3.0 | 10.0 | 0.00 | 0.00 | 0.00 | 68 | 1014.8 |